[[{"header":{"parameterUnit":"m.s-1","parameterCategory":2,"la1":30.2991,"la2":30.254,"lo1":-89.0895,"lo2":-89.0444,"dy":0.0017,"dx":0.0017,"nx":28,"ny":28,"refTime":"2024-08-28T09:00:00:Z","depth":"0","parameterNumber":2,"parameterNumberName":"U-component_of_CURRENTS"},"data":[0,0,0,0,0,0,0,0,0,0,0,0,0,0,0,0,0,0,0,0,0,0,0,0,0,0,0,0,0,0,0,0,0,0,0,0,0,0,0,0,0,0,0,0,0,0,0,0,0,0,0,0,0,0,0,0,0,0,0.357,0.3571,0,0.3645,0.3645,0.3646,0.3677,0.3677,0.3677,0.3677,0.3701,0.3701,0.3702,0,0,0,0,0,0,0,0,0,0,0,0,0,0.35,0.35,0.357,0.3571,0.3572,0.3645,0.3645,0.3646,0.3677,0.3677,0.3677,0.3677,0.37,0.3701,0.3702,0,0,0,0,0,0,0,0,0,0,0,0,0,0.3546,0.3501,0.3569,0.3598,0.3601,0.3644,0.3646,0.3647,0.3677,0.3677,0.3677,0.3677,0.37,0.3701,0.3702,0.3706,0,0,0.3705,0.3705,0,0,0,0,0,0,0,0,0.3543,0.3548,0.3592,0.3596,0.36,0.3654,0.363,0.3665,0.3677,0.3646,0.3677,0.3677,0.3681,0.3684,0.3696,0.3707,0.3708,0.3705,0.3705,0.3706,0.3706,0,0,0,0,0,0,0,0.354,0.3545,0.3597,0.3594,0.3598,0.3623,0.3629,0.3637,0.366,0.3649,0.3652,0.3663,0.3683,0.3695,0.3696,0.3709,0.3705,0.3705,0.3706,0.3706,0.3775,0.3776,0,0,0,0,0,0,0.3532,0.3542,0.3595,0.36,0.3573,0.3624,0.363,0.3634,0.3661,0.3666,0.3663,0.3665,0.3693,0.3695,0.3697,0.374,0.3706,0.3706,0.3707,0.3774,0.3776,0.3777,0,0,0,0,0,0,0.353,0.3536,0.3592,0.3575,0.3584,0.3625,0.3629,0.3636,0.3655,0.3673,0.3677,0.3676,0.3693,0.3696,0.3717,0.3739,0.3707,0.3708,0.3772,0.3774,0.3776,0.3802,0,0,0,0,0,0,0.3528,0.3535,0.3536,0.3574,0.3585,0.3624,0.363,0.3637,0.3663,0.3665,0.3685,0.3687,0.3694,0.3715,0.3717,0.374,0.3708,0.3771,0.3773,0.3776,0.38,0.3805,0.3809,0,0,0,0,0,0.3525,0.3533,0.3536,0.3543,0.3585,0.3624,0.3632,0.366,0.3663,0.3676,0.3691,0.3687,0.3733,0.3717,0.3719,0.3742,0.377,0.3773,0.3775,0.3797,0.3804,0.3809,0,0,0,0,0,0,0.3514,0.3538,0.3542,0.3559,0.359,0.3631,0.3648,0.3663,0.3686,0.3686,0.3697,0.3701,0.3736,0.3733,0.3715,0.3772,0.3753,0.3756,0.3769,0.3775,0.3779,0.3798,0.3709,0,0,0,0,0,0.3509,0.3515,0.3548,0.3563,0.3576,0.3609,0.3629,0.3647,0.3674,0.3685,0.3701,0.3721,0.375,0.3755,0.378,0.3796,0.3838,0.3816,0.3821,0.3825,0.3843,0.3933,0.3948,0.3787,0.3787,0.3786,0,0,0.3513,0.3525,0.3531,0.3561,0.3584,0.3611,0.3621,0.3653,0.3678,0.3681,0.3717,0.3741,0.3762,0.3796,0.381,0.3792,0.3893,0.3829,0.3832,0.3848,0.3938,0.3954,0.3968,0.3789,0.3788,0.3788,0,0,0.3524,0.353,0.3539,0.356,0.3593,0.3617,0.3625,0.3666,0.3685,0.3717,0.374,0.3776,0.3801,0.3834,0.3849,0.3892,0.3924,0.3897,0.3924,0.4011,0.4026,0.4039,0.4111,0.413,0.3888,0.3888,0.3888,0,0.353,0.354,0.3552,0.3568,0.3592,0.3618,0.3645,0.3669,0.3714,0.3745,0.3729,0.3823,0.3825,0.3897,0.3908,0.3904,0.3958,0.3897,0.4019,0.4033,0.4046,0.4116,0.4137,0.389,0.389,0.3889,0.3889,0,0.355,0.3559,0.357,0.3594,0.3621,0.3649,0.3683,0.3713,0.3734,0.3773,0.3848,0.3868,0.3932,0.3932,0.3925,0.4024,0.4034,0.4023,0.4004,0.4064,0.4134,0.4156,0.3892,0.3892,0.3891,0.3891,0,0,0.3564,0.358,0.3582,0.3594,0.3636,0.3662,0.3705,0.3768,0.382,0.3856,0.3937,0.3974,0.4009,0.4031,0.4042,0.4094,0.4212,0.4093,0.4097,0.4165,0.4414,0.4339,0.4355,0.4231,0.4235,0.4238,0.4425,0,0.358,0.3602,0.3612,0.3649,0.3668,0.3704,0.3748,0.3807,0.3862,0.3944,0.3991,0.4068,0.404,0.4079,0.4135,0.421,0.4272,0.4163,0.4346,0.4352,0.4278,0.4378,0.4145,0.4286,0.4446,0.4449,0.4452,0,0.3593,0.3607,0.3636,0.3676,0.369,0.372,0.381,0.3854,0.397,0.4018,0.4113,0.4165,0.427,0.4221,0.4395,0.4334,0.4381,0.4417,0.4426,0.4365,0.4317,0.4253,0.4319,0.4193,0.4485,0.4483,0.448,0,0.359,0.3622,0.3643,0.3657,0.3712,0.3741,0.3782,0.3884,0.3956,0.4084,0.4172,0.4289,0.4381,0.4463,0.4539,0.4489,0.4724,0.4663,0.4643,0.4638,0.448,0.4453,0.4443,0.4788,0.4788,0.4787,0.4787,0,0.3598,0.3616,0.3641,0.3653,0.3708,0.3741,0.383,0.3891,0.4018,0.4138,0.422,0.4347,0.4451,0.4588,0.4617,0.4719,0.4802,0.4684,0.4696,0.4479,0.4452,0.4365,0.4309,0.4794,0.4793,0.4791,0.479,0,0.3592,0.3605,0.3636,0.3682,0.3704,0.3745,0.3855,0.3929,0.4044,0.421,0.4263,0.4449,0.4623,0.4716,0.4871,0.4833,0.4768,0.4917,0.4648,0.4622,0.4424,0.4377,0.4278,0.4156,0.4919,0.4919,0.4918,0,0.3591,0.3599,0.3651,0.3679,0.3701,0.3769,0.3827,0.3935,0.4031,0.4275,0.4365,0.4579,0.4709,0.4905,0.4877,0.4932,0.4791,0.4736,0.4575,0.4413,0.4372,0.4206,0.4099,0.4383,0.4378,0.4374,0.4371,0,0.3593,0.3606,0.3632,0.3688,0.3739,0.3801,0.3892,0.3966,0.4121,0.4263,0.4458,0.4572,0.4747,0.4692,0.4747,0.4738,0.447,0.4656,0.4565,0.4024,0.3769,0.3656,0.4263,0.4336,0.434,0.4342,0.4344,0.4346,0.3596,0.3614,0.3642,0.3689,0.3751,0.3801,0.3822,0.394,0.4064,0.4211,0.4404,0.4475,0.449,0.4517,0.448,0.4239,0.4265,0.407,0.4057,0.3928,0.3701,0.423,0.426,0.4262,0.4265,0.4267,0.4269,0,0.3586,0.36,0.3642,0.3683,0.3715,0.3757,0.3842,0.3836,0.3925,0.4072,0.4194,0.4131,0.405,0.4011,0.3822,0.3651,0.3461,0.3551,0.3254,0.3202,0.3745,0.3608,0.3403,0.3403,0.3403,0.3403,0.3403,0.3403,0.3585,0.3595,0.3599,0.3619,0.3644,0.363,0.364,0.3649,0.3706,0.3669,0.3605,0.3619,0.3631,0.3524,0.3294,0.3207,0.297,0.281,0.2869,0.3234,0.328,0.3323,0.3181,0.2889,0.2889,0.2142,0.2137,0.2132]},{"header":{"parameterUnit":"m.s-1","parameterCategory":2,"la1":30.2991,"la2":30.254,"lo1":-89.0895,"lo2":-89.0444,"dy":0.0017,"dx":0.0017,"nx":28,"ny":28,"refTime":"2024-08-28T09:00:00:Z","depth":"0","parameterNumber":3,"parameterNumberName":"V-component_of_CURRENTS"},"data":[0,0,0,0,0,0,0,0,0,0,0,0,0,0,0,0,0,0,0,0,0,0,0,0,0,0,0,0,0,0,0,0,0,0,0,0,0,0,0,0,0,0,0,0,0,0,0,0,0,0,0,0,0,0,0,0,0,0,0.0281,0.0281,0,0.0234,0.0234,0.0233,0.0187,0.0186,0.0186,0.0185,0.0108,0.0107,0.0105,0,0,0,0,0,0,0,0,0,0,0,0,0,0.0276,0.0277,0.0281,0.0281,0.028,0.0234,0.0234,0.0233,0.0187,0.0186,0.0186,0.0185,0.0109,0.0107,0.0105,0,0,0,0,0,0,0,0,0,0,0,0,0,0.0258,0.0277,0.0281,0.0253,0.025,0.0234,0.0233,0.0233,0.0187,0.0186,0.0185,0.0185,0.0109,0.0107,0.0105,0.0104,0,0,0.0097,0.0096,0,0,0,0,0,0,0,0,0.0259,0.0258,0.0257,0.0255,0.0251,0.0217,0.0204,0.0189,0.0187,0.0209,0.0185,0.0184,0.0143,0.0138,0.0129,0.0101,0.0098,0.0097,0.0096,0.0095,0.0094,0,0,0,0,0,0,0,0.026,0.0259,0.0261,0.0257,0.0253,0.0224,0.022,0.02,0.0179,0.0207,0.0204,0.0201,0.0141,0.0132,0.0127,0.0096,0.0097,0.0095,0.0094,0.0093,0.0066,0.0066,0,0,0,0,0,0,0.0273,0.0261,0.0263,0.026,0.0255,0.0225,0.0221,0.0228,0.018,0.0173,0.0202,0.0199,0.0136,0.013,0.0124,0.0136,0.0095,0.0092,0.0091,0.0065,0.0066,0.0067,0,0,0,0,0,0,0.0273,0.0274,0.0265,0.026,0.0257,0.0226,0.0233,0.0227,0.0219,0.0177,0.0168,0.0201,0.0135,0.0127,0.0113,0.0132,0.0091,0.0089,0.0064,0.0065,0.0066,0.0151,0,0,0,0,0,0,0.0273,0.0274,0.0283,0.0261,0.0257,0.0268,0.0234,0.0227,0.0219,0.0215,0.0173,0.0165,0.0134,0.0117,0.0111,0.0128,0.0087,0.0063,0.0065,0.0066,0.0147,0.0155,0.0161,0,0,0,0,0,0.0273,0.0294,0.0284,0.0284,0.0271,0.0269,0.0265,0.0238,0.022,0.0226,0.0195,0.0166,0.0121,0.0116,0.0109,0.0126,0.0063,0.0064,0.0066,0.0144,0.0153,0.0161,0,0,0,0,0,0,0.0295,0.029,0.0279,0.0296,0.0288,0.0262,0.0263,0.0246,0.0226,0.022,0.0176,0.0167,0.0157,0.0132,0.0127,0.0121,0.0087,0.0087,0.0149,0.0157,0.0164,0.0201,0.0085,0,0,0,0,0,0.0305,0.0317,0.0306,0.0317,0.0317,0.0291,0.0286,0.0271,0.025,0.0241,0.0212,0.0181,0.0159,0.0151,0.0124,0.0126,0.0118,0.0131,0.0138,0.0145,0.0169,0.0169,0.0178,0.0072,0.0072,0.0072,0,0,0.0314,0.0313,0.0319,0.0322,0.031,0.0327,0.0286,0.0287,0.0298,0.0236,0.024,0.0201,0.0163,0.016,0.0155,0.0143,0.0171,0.0147,0.0152,0.0174,0.0171,0.0182,0.0191,0.0073,0.0073,0.0073,0,0,0.0345,0.0341,0.0364,0.0364,0.0359,0.0352,0.0357,0.0339,0.0329,0.0327,0.0284,0.0264,0.023,0.0213,0.0198,0.023,0.0202,0.0215,0.0288,0.0287,0.0297,0.0305,0.0314,0.0322,0.0226,0.0226,0.0226,0,0.0354,0.0386,0.0369,0.0391,0.0402,0.037,0.0402,0.0391,0.037,0.0374,0.0339,0.0305,0.026,0.0274,0.0278,0.0248,0.0247,0.026,0.0299,0.0307,0.0313,0.032,0.0328,0.023,0.023,0.0229,0.0229,0,0.0404,0.0428,0.0442,0.0466,0.0475,0.0495,0.0486,0.049,0.0472,0.046,0.046,0.0406,0.0395,0.0367,0.0329,0.0359,0.0343,0.0303,0.0283,0.033,0.0333,0.034,0.0236,0.0235,0.0234,0.0233,0,0,0.0432,0.0472,0.0478,0.0509,0.0519,0.0539,0.056,0.0583,0.0619,0.0577,0.0625,0.0559,0.0535,0.0518,0.047,0.0462,0.0492,0.0412,0.041,0.0432,0.0507,0.0464,0.0467,0.046,0.0461,0.0462,0.0493,0,0.0479,0.055,0.0552,0.0621,0.0662,0.0648,0.0683,0.0693,0.0692,0.073,0.0675,0.0693,0.0593,0.0602,0.0576,0.0519,0.0513,0.0488,0.0449,0.0449,0.0414,0.0475,0.0459,0.0482,0.0499,0.05,0.0501,0,0.0532,0.0577,0.0659,0.0723,0.074,0.0778,0.0844,0.0869,0.0895,0.0896,0.0896,0.0862,0.0853,0.0761,0.0697,0.0689,0.0613,0.0555,0.0554,0.0494,0.0419,0.0435,0.0494,0.0325,0.0511,0.051,0.0509,0,0.0583,0.0653,0.073,0.0749,0.0815,0.0853,0.0889,0.0925,0.0977,0.102,0.1075,0.1031,0.1053,0.0944,0.0811,0.0765,0.0747,0.0664,0.0557,0.0553,0.0524,0.0514,0.0425,0.0628,0.0628,0.0628,0.0628,0,0.064,0.0699,0.0767,0.0811,0.0919,0.0929,0.1041,0.1065,0.1135,0.124,0.1179,0.127,0.1101,0.1062,0.0898,0.0769,0.0815,0.0598,0.0566,0.0551,0.0544,0.038,0.027,0.0629,0.0629,0.0629,0.0629,0,0.0687,0.0726,0.0824,0.0912,0.0949,0.1029,0.1146,0.1227,0.1279,0.1423,0.1452,0.1473,0.1436,0.1254,0.111,0.0911,0.0663,0.0703,0.0701,0.0668,0.0369,0.0264,0.016,0.0081,0.0587,0.0586,0.0586,0,0.0722,0.0779,0.0905,0.0978,0.1026,0.1141,0.1228,0.1298,0.1395,0.1565,0.1653,0.1679,0.1737,0.1506,0.117,0.0897,0.0703,0.0663,0.0549,0.0378,0.0238,0.017,0.0106,0.0549,0.0548,0.0547,0.0547,0,0.0792,0.0836,0.0918,0.1062,0.1172,0.1299,0.1427,0.1528,0.1643,0.1797,0.2001,0.2075,0.188,0.1617,0.1207,0.099,0.0525,0.0637,0.0467,0.0216,0.0133,0.0034,0.0506,0.054,0.0541,0.0541,0.0542,0.0542,0.0845,0.0913,0.1017,0.1151,0.1279,0.143,0.1548,0.1715,0.1917,0.2177,0.2246,0.2425,0.199,0.1454,0.1131,0.0498,0.0499,0.0279,0.0175,0.0131,0.002,0.0481,0.0463,0.0463,0.0463,0.0464,0.0464,0,0.09,0.097,0.1096,0.1254,0.1386,0.1448,0.1662,0.181,0.2076,0.2373,0.2588,0.2481,0.1948,0.1384,0.0502,0.009,-0.0045,-0.0121,-0.0225,-0.0263,0.0161,0.0122,0.0022,0.0022,0.0022,0.0022,0.0023,0.0023,0.0932,0.1038,0.1094,0.13,0.1415,0.1605,0.1731,0.1997,0.2241,0.2601,0.2748,0.2813,0.2303,0.084,-0.0129,-0.0335,-0.0578,-0.0642,-0.0756,-0.0489,-0.046,-0.0432,-0.0493,-0.0721,-0.0722,-0.1126,-0.1131,-0.1134]}],[{"header":{"parameterUnit":"m.s-1","parameterCategory":2,"la1":30.2991,"la2":30.254,"lo1":-89.0895,"lo2":-89.0444,"dy":0.0017,"dx":0.0017,"nx":28,"ny":28,"refTime":"2024-08-28T09:00:00:Z","depth":"2","parameterNumber":2,"parameterNumberName":"U-component_of_CURRENTS"},"data":[0,0,0,0,0,0,0,0,0,0,0,0,0,0,0,0,0,0,0,0,0,0,0,0,0,0,0,0,0,0,0,0,0,0,0,0,0,0,0,0,0,0,0,0,0,0,0,0,0,0,0,0,0,0,0,0,0,0,0.2789,0.279,0,0.2835,0.2836,0.2836,0.2851,0.2851,0.2851,0.2851,0.2879,0.288,0.2881,0,0,0,0,0,0,0,0,0,0,0,0,0,0.2739,0.274,0.2789,0.279,0.2791,0.2835,0.2836,0.2836,0.2852,0.2851,0.2851,0.2851,0.2879,0.288,0.2881,0,0,0,0,0,0,0,0,0,0,0,0,0,0.277,0.274,0.2789,0.2804,0.2806,0.2835,0.2836,0.2836,0.2852,0.2851,0.2851,0.2851,0.2878,0.2879,0.2881,0.2894,0,0,0.2885,0.2885,0,0,0,0,0,0,0,0,0.2768,0.2772,0.2801,0.2803,0.2805,0.2838,0.2828,0.2855,0.2852,0.2834,0.2851,0.2851,0.2864,0.2866,0.2875,0.2895,0.2896,0.2885,0.2886,0.2886,0.2887,0,0,0,0,0,0,0,0.2766,0.277,0.2807,0.2802,0.2804,0.2816,0.282,0.2834,0.2849,0.2835,0.2837,0.2842,0.2865,0.2874,0.2876,0.2897,0.2885,0.2886,0.2887,0.2887,0.2958,0.2959,0,0,0,0,0,0,0.276,0.2768,0.2806,0.2809,0.2786,0.2817,0.2822,0.2827,0.2849,0.2853,0.2843,0.2843,0.2872,0.2874,0.2877,0.2928,0.2886,0.2888,0.2888,0.2957,0.2958,0.296,0,0,0,0,0,0,0.2759,0.2763,0.2804,0.279,0.2796,0.2818,0.2824,0.2828,0.2852,0.2855,0.2858,0.2864,0.2872,0.2875,0.29,0.2928,0.2888,0.2889,0.2956,0.2958,0.2959,0.3008,0,0,0,0,0,0,0.2758,0.2763,0.2775,0.2789,0.2796,0.2822,0.2825,0.2829,0.2855,0.2856,0.2874,0.2875,0.2872,0.2898,0.2901,0.2929,0.289,0.2955,0.2957,0.2959,0.3005,0.3012,0.3017,0,0,0,0,0,0.2756,0.2765,0.2775,0.278,0.2809,0.2823,0.2828,0.2843,0.2856,0.2864,0.2882,0.2876,0.2913,0.29,0.2904,0.2932,0.2954,0.2956,0.2958,0.3003,0.301,0.3017,0,0,0,0,0,0,0.2748,0.2768,0.2779,0.2795,0.281,0.2825,0.2842,0.2854,0.2877,0.2885,0.289,0.2892,0.293,0.2922,0.2907,0.2958,0.2933,0.2936,0.2965,0.2972,0.2978,0.2983,0.2892,0,0,0,0,0,0.2753,0.2764,0.2785,0.2796,0.2811,0.2833,0.2846,0.2856,0.2873,0.2884,0.2897,0.2915,0.2941,0.2948,0.2966,0.2989,0.301,0.301,0.3015,0.302,0.3027,0.3095,0.3108,0.2968,0.2968,0.2968,0,0,0.275,0.2765,0.277,0.2796,0.2815,0.2837,0.2841,0.2863,0.2883,0.2884,0.292,0.2941,0.2955,0.2987,0.3001,0.2982,0.307,0.3023,0.3027,0.3032,0.3099,0.3113,0.3126,0.2969,0.2969,0.2969,0,0,0.2749,0.277,0.2784,0.2802,0.2833,0.2847,0.2858,0.2885,0.2903,0.2934,0.2951,0.2986,0.3011,0.3031,0.3045,0.3091,0.3105,0.3097,0.3123,0.319,0.3202,0.3214,0.3254,0.3269,0.3091,0.3091,0.3091,0,0.2751,0.2769,0.2788,0.2811,0.2831,0.2855,0.2878,0.2901,0.293,0.2956,0.2948,0.3028,0.3034,0.3094,0.3107,0.3106,0.314,0.3097,0.3199,0.3211,0.3221,0.326,0.3276,0.3094,0.3093,0.3093,0.3093,0,0.2762,0.2783,0.2795,0.2833,0.2855,0.2876,0.291,0.2941,0.2969,0.2994,0.3061,0.308,0.3129,0.3136,0.3133,0.3215,0.3214,0.3208,0.3184,0.3239,0.3276,0.3291,0.3097,0.3096,0.3096,0.3095,0,0,0.2746,0.2794,0.2798,0.2822,0.287,0.2886,0.2935,0.2986,0.3032,0.3066,0.313,0.3173,0.32,0.3217,0.3231,0.3273,0.3369,0.3271,0.3274,0.3315,0.3513,0.3433,0.3441,0.3392,0.3395,0.3397,0.3508,0,0.2753,0.2785,0.2814,0.2853,0.2876,0.2924,0.2967,0.3018,0.3064,0.313,0.3177,0.324,0.3227,0.3264,0.3311,0.3371,0.3413,0.3339,0.345,0.3453,0.3379,0.3457,0.3165,0.3232,0.3522,0.3525,0.3527,0,0.2757,0.2778,0.2811,0.287,0.2889,0.2924,0.3008,0.3048,0.3145,0.3186,0.3264,0.3309,0.34,0.3369,0.3502,0.3463,0.3492,0.3517,0.3523,0.3441,0.3402,0.3225,0.3249,0.3552,0.355,0.3548,0.3546,0,0.2725,0.2778,0.2802,0.2821,0.2892,0.2934,0.2982,0.3071,0.3124,0.3235,0.3307,0.34,0.3485,0.3542,0.3602,0.3573,0.3732,0.3698,0.3647,0.3641,0.3408,0.3376,0.3781,0.378,0.378,0.378,0.3779,0,0.2712,0.2734,0.2794,0.2808,0.2857,0.292,0.2997,0.3054,0.3165,0.324,0.3343,0.3431,0.354,0.3639,0.3653,0.371,0.3785,0.3672,0.3676,0.3414,0.3384,0.3666,0.3652,0.3784,0.3783,0.3782,0.3782,0,0.2668,0.2705,0.2739,0.2814,0.2841,0.2877,0.2994,0.3051,0.3171,0.3281,0.333,0.3504,0.3641,0.372,0.3829,0.379,0.3828,0.3816,0.3491,0.3453,0.3674,0.3661,0.3782,0.3781,0.3779,0.3778,0.3777,0,0.2645,0.266,0.2725,0.2745,0.2783,0.2854,0.2906,0.3027,0.3079,0.331,0.3349,0.3555,0.364,0.3784,0.3759,0.3777,0.3843,0.3502,0.3381,0.3689,0.3681,0.367,0.3659,0.3091,0.3085,0.308,0.3075,0,0.2603,0.2633,0.2662,0.2693,0.2744,0.2787,0.2864,0.2902,0.3054,0.3166,0.3304,0.3407,0.358,0.3481,0.3529,0.3488,0.3473,0.3395,0.3831,0.3134,0.3046,0.3035,0.3046,0.3028,0.3032,0.3036,0.3039,0.304,0.2578,0.2582,0.2614,0.2639,0.2683,0.2682,0.2686,0.2763,0.2827,0.2934,0.3124,0.3194,0.3257,0.3194,0.3091,0.3022,0.3263,0.3095,0.3108,0.3128,0.3026,0.2941,0.2882,0.2886,0.2889,0.2892,0.2895,0,0.2518,0.253,0.2552,0.2557,0.2542,0.2603,0.2625,0.2575,0.2581,0.2727,0.2819,0.2649,0.2618,0.2689,0.2509,0.2495,0.243,0.2387,0.2275,0.2327,0.2372,0.2226,0.1873,0.1869,0.1866,0.1863,0,0,0.2497,0.2473,0.2471,0.2399,0.2411,0.2338,0.2323,0.2259,0.2281,0.225,0.2291,0.254,0.2637,0.2239,0.2172,0.1991,0.2134,0.1907,0.2737,0.266,0.2699,0.2804,0.2643,0,0,0,0,0]},{"header":{"parameterUnit":"m.s-1","parameterCategory":2,"la1":30.2991,"la2":30.254,"lo1":-89.0895,"lo2":-89.0444,"dy":0.0017,"dx":0.0017,"nx":28,"ny":28,"refTime":"2024-08-28T09:00:00:Z","depth":"2","parameterNumber":3,"parameterNumberName":"V-component_of_CURRENTS"},"data":[0,0,0,0,0,0,0,0,0,0,0,0,0,0,0,0,0,0,0,0,0,0,0,0,0,0,0,0,0,0,0,0,0,0,0,0,0,0,0,0,0,0,0,0,0,0,0,0,0,0,0,0,0,0,0,0,0,0,0.0224,0.0224,0,0.0183,0.0182,0.0182,0.0148,0.0147,0.0147,0.0147,0.0085,0.0083,0.0082,0,0,0,0,0,0,0,0,0,0,0,0,0,0.0217,0.0217,0.0225,0.0224,0.0224,0.0183,0.0182,0.0182,0.0148,0.0147,0.0147,0.0147,0.0085,0.0083,0.0082,0,0,0,0,0,0,0,0,0,0,0,0,0,0.0202,0.0218,0.0225,0.0202,0.02,0.0183,0.0182,0.0181,0.0148,0.0147,0.0147,0.0146,0.0086,0.0084,0.0081,0.0077,0,0,0.0075,0.0074,0,0,0,0,0,0,0,0,0.0203,0.0202,0.0206,0.0204,0.0201,0.0171,0.0157,0.0146,0.0148,0.0167,0.0147,0.0146,0.0112,0.0108,0.01,0.0074,0.0071,0.0075,0.0074,0.0073,0.0072,0,0,0,0,0,0,0,0.0204,0.0203,0.0207,0.0206,0.0203,0.0175,0.0173,0.0154,0.0141,0.0165,0.0163,0.0159,0.0111,0.0102,0.0098,0.0071,0.0075,0.0073,0.0072,0.0071,0.004,0.004,0,0,0,0,0,0,0.0214,0.0205,0.0209,0.0206,0.0202,0.0176,0.0173,0.018,0.0142,0.0136,0.016,0.0158,0.0106,0.0101,0.0096,0.0103,0.0073,0.0071,0.007,0.0039,0.004,0.004,0,0,0,0,0,0,0.0214,0.0215,0.021,0.0204,0.0202,0.0177,0.0185,0.018,0.0175,0.0138,0.0132,0.0161,0.0106,0.0099,0.0088,0.01,0.007,0.0068,0.0039,0.004,0.004,0.0108,0,0,0,0,0,0,0.0215,0.0216,0.0224,0.0205,0.0202,0.0211,0.0185,0.0179,0.0174,0.0171,0.0137,0.0131,0.0105,0.0091,0.0086,0.0097,0.0066,0.0038,0.0039,0.004,0.0106,0.0111,0.0116,0,0,0,0,0,0.0215,0.0232,0.0225,0.0225,0.0215,0.0212,0.0208,0.0187,0.0175,0.018,0.0156,0.0132,0.0092,0.009,0.0084,0.0094,0.0038,0.0039,0.004,0.0103,0.011,0.0116,0,0,0,0,0,0,0.0231,0.023,0.0221,0.0237,0.0228,0.0207,0.0207,0.0195,0.0179,0.0175,0.014,0.0132,0.0123,0.0101,0.0099,0.0087,0.006,0.006,0.0111,0.0117,0.0122,0.0142,0.0065,0,0,0,0,0,0.0239,0.0252,0.0243,0.0253,0.0252,0.0231,0.0226,0.0215,0.0199,0.0191,0.0167,0.0141,0.0122,0.0114,0.009,0.0089,0.0063,0.009,0.0095,0.01,0.0111,0.0083,0.0087,0.0044,0.0044,0.0044,0,0,0.0246,0.0248,0.0253,0.0257,0.0247,0.026,0.0227,0.0228,0.0236,0.0187,0.0189,0.0157,0.0124,0.0119,0.0113,0.0103,0.0097,0.0101,0.0106,0.0114,0.0085,0.0089,0.0093,0.0044,0.0044,0.0044,0,0,0.0269,0.027,0.0289,0.029,0.0286,0.0279,0.0285,0.0269,0.026,0.0257,0.0223,0.0204,0.0175,0.0157,0.0143,0.0165,0.0123,0.0153,0.0201,0.0174,0.0177,0.018,0.015,0.0149,0.016,0.016,0.016,0,0.0275,0.0304,0.0293,0.0312,0.0321,0.0296,0.032,0.0311,0.0292,0.029,0.0267,0.0227,0.0196,0.0194,0.0199,0.0178,0.0153,0.0181,0.0182,0.0184,0.0186,0.0154,0.0153,0.0163,0.0163,0.0163,0.0162,0,0.0316,0.0337,0.0349,0.0372,0.0379,0.0395,0.0387,0.0387,0.0372,0.0358,0.0346,0.0301,0.0281,0.0263,0.0237,0.0238,0.0212,0.0189,0.0169,0.0195,0.0159,0.0156,0.0168,0.0167,0.0166,0.0165,0,0,0.0336,0.0372,0.0378,0.0403,0.0414,0.043,0.0445,0.0456,0.0474,0.0437,0.0454,0.0407,0.0378,0.0361,0.0322,0.0297,0.0281,0.0255,0.0252,0.0231,0.0219,0.0184,0.0177,0.0257,0.0257,0.0257,0.0188,0,0.0372,0.043,0.0437,0.0492,0.0523,0.0513,0.0537,0.054,0.0528,0.0536,0.0483,0.0481,0.0418,0.0414,0.0377,0.0311,0.0278,0.0302,0.0192,0.0189,0.016,0.0174,0.02,0.0139,0.0185,0.0185,0.0184,0,0.0413,0.0451,0.0516,0.0567,0.058,0.0611,0.065,0.0667,0.0662,0.0651,0.0628,0.0587,0.0553,0.0493,0.0389,0.0407,0.0321,0.0258,0.0253,0.0198,0.0149,0.012,0.0132,0.0179,0.018,0.018,0.0181,0,0.0448,0.0507,0.0567,0.0584,0.0636,0.0665,0.0693,0.0705,0.0738,0.0731,0.0755,0.0684,0.0675,0.0557,0.0423,0.0408,0.03,0.0262,0.0146,0.0142,0.0131,0.0126,0.0183,0.0183,0.0183,0.0183,0.0183,0,0.0491,0.0536,0.0593,0.0628,0.0708,0.072,0.08,0.0806,0.084,0.0907,0.0827,0.0861,0.0692,0.0609,0.046,0.0301,0.0326,0.0159,0.0125,0.0154,0.0152,0.0161,0.016,0.0181,0.0181,0.0182,0.0182,0,0.0519,0.0553,0.0628,0.07,0.0729,0.0788,0.0883,0.0942,0.0959,0.1045,0.1055,0.1,0.0896,0.0709,0.0524,0.037,0.0207,0.0139,0.0181,0.0153,0.0054,0.0056,0.0005,0.0004,0.0002,0.0001,-0.0,0,0.0539,0.0583,0.0685,0.0744,0.0784,0.0876,0.095,0.0996,0.1071,0.1144,0.1198,0.1125,0.1095,0.0795,0.0511,0.0238,0.0202,0.0068,0.0038,0.0066,0.0037,0.0042,0.0047,0.0047,0.0047,0.0046,0.0046,0,0.0581,0.0619,0.0686,0.0809,0.0902,0.1012,0.1121,0.1202,0.1283,0.136,0.144,0.142,0.1147,0.0878,0.0489,0.0297,0.0109,0.0048,0.0077,0.0087,0.0099,0.0073,0.0077,0.0042,0.0042,0.0042,0.0043,0.0043,0.0616,0.0671,0.0767,0.0885,0.0994,0.1141,0.126,0.1381,0.1521,0.1652,0.1611,0.1587,0.1266,0.0776,0.0441,0.008,0.0096,-0.0038,-0.0033,-0.0029,-0.0013,-0.0005,-0.0079,-0.0079,-0.0079,-0.0079,-0.008,0,0.0664,0.0731,0.0839,0.0991,0.1118,0.1176,0.1375,0.1497,0.1685,0.1764,0.182,0.1509,0.1203,0.0832,0.0307,-0.0011,-0.0032,-0.0122,-0.0068,-0.0062,-0.0057,-0.004,-0.0115,-0.0116,-0.0116,-0.0117,0,0,0.0693,0.0798,0.0855,0.1067,0.1184,0.1387,0.1518,0.1694,0.1796,0.1865,0.1843,0.177,0.1318,0.0932,0.05,0.0201,0.014,0.013,0.0192,0.0313,0.0322,0.0023,0.0059,0,0,0,0,0]}],[{"header":{"parameterUnit":"m.s-1","parameterCategory":2,"la1":30.2991,"la2":30.254,"lo1":-89.0895,"lo2":-89.0444,"dy":0.0017,"dx":0.0017,"nx":28,"ny":28,"refTime":"2024-08-28T09:00:00:Z","depth":"4","parameterNumber":2,"parameterNumberName":"U-component_of_CURRENTS"},"data":[0,0,0,0,0,0,0,0,0,0,0,0,0,0,0,0,0,0,0,0,0,0,0,0,0,0,0,0,0,0,0,0,0,0,0,0,0,0,0,0,0,0,0,0,0,0,0,0,0,0,0,0,0,0,0,0,0,0,0.1716,0.1717,0,0.1761,0.1761,0.1761,0.1808,0.1809,0.181,0.1811,0.1871,0.1872,0.1872,0,0,0,0,0,0,0,0,0,0,0,0,0,0.1654,0.1655,0.1716,0.1717,0.1718,0.176,0.1761,0.1761,0.1808,0.1809,0.181,0.1811,0.1871,0.1872,0.1873,0,0,0,0,0,0,0,0,0,0,0,0,0,0.1686,0.1655,0.1716,0.1747,0.1751,0.176,0.1761,0.1762,0.1808,0.1809,0.181,0.1812,0.187,0.1871,0.1873,0.1856,0,0,0.1877,0.1877,0,0,0,0,0,0,0,0,0.1685,0.1689,0.1742,0.1745,0.1749,0.1782,0.1761,0.1794,0.1808,0.1784,0.1811,0.1812,0.1843,0.1846,0.1849,0.1859,0.1861,0.1877,0.1877,0.1878,0.1878,0,0,0,0,0,0,0,0.1682,0.1687,0.1732,0.1743,0.1747,0.1753,0.1759,0.1768,0.1805,0.1787,0.179,0.1798,0.1845,0.1848,0.1851,0.1862,0.1877,0.1878,0.1879,0.1879,0.1981,0.1983,0,0,0,0,0,0,0.168,0.1685,0.1731,0.1734,0.1721,0.1754,0.176,0.1769,0.1805,0.1812,0.1797,0.18,0.1845,0.185,0.1853,0.1934,0.1878,0.1879,0.188,0.1979,0.1982,0.1984,0,0,0,0,0,0,0.1678,0.1684,0.1729,0.1711,0.1718,0.1754,0.1763,0.1769,0.1811,0.1813,0.182,0.1837,0.1846,0.1852,0.1897,0.1933,0.188,0.1881,0.1977,0.198,0.1983,0.2031,0,0,0,0,0,0,0.1676,0.1683,0.1707,0.1711,0.1719,0.176,0.1762,0.1769,0.1812,0.1818,0.1849,0.1854,0.1848,0.1896,0.1899,0.1933,0.1882,0.1975,0.1978,0.1982,0.2027,0.2035,0.2042,0,0,0,0,0,0.1674,0.169,0.1708,0.1714,0.1745,0.1761,0.1767,0.1794,0.1813,0.1836,0.1862,0.1855,0.1922,0.1898,0.1901,0.1937,0.1973,0.1977,0.1982,0.2024,0.2034,0.2042,0,0,0,0,0,0,0.1674,0.1697,0.1716,0.174,0.1765,0.1771,0.1798,0.1815,0.1853,0.1872,0.1873,0.1879,0.1935,0.1932,0.1906,0.198,0.1949,0.1954,0.198,0.1989,0.1997,0.2008,0.1883,0,0,0,0,0,0.1685,0.1711,0.1729,0.1755,0.1769,0.1793,0.1812,0.1832,0.1855,0.1875,0.1896,0.1924,0.1948,0.1967,0.1986,0.202,0.203,0.2049,0.2057,0.2063,0.2077,0.2125,0.2138,0.1998,0.1998,0.1998,0,0,0.1693,0.1712,0.1727,0.1759,0.1781,0.1804,0.1808,0.1848,0.1877,0.1874,0.1934,0.1954,0.1965,0.2008,0.2033,0.2014,0.2108,0.2069,0.2074,0.2085,0.2131,0.2144,0.2156,0.2001,0.2001,0.2,0,0,0.1706,0.174,0.1762,0.1786,0.1829,0.184,0.186,0.1892,0.1923,0.1971,0.1983,0.2029,0.2062,0.2079,0.2088,0.2152,0.215,0.2164,0.2209,0.2255,0.2266,0.2277,0.2301,0.2313,0.2165,0.2165,0.2165,0,0.1721,0.1747,0.1773,0.18,0.1825,0.186,0.1888,0.1916,0.1964,0.1997,0.2003,0.2084,0.2093,0.2146,0.2171,0.2169,0.219,0.2167,0.2264,0.2275,0.2284,0.2306,0.2319,0.2168,0.2167,0.2167,0.2167,0,0.1736,0.1775,0.1791,0.1837,0.1868,0.19,0.1938,0.1988,0.203,0.2057,0.2139,0.216,0.2212,0.2221,0.2214,0.2292,0.2283,0.2269,0.2236,0.2301,0.232,0.2333,0.2172,0.2171,0.217,0.2169,0,0,0.1716,0.1788,0.1799,0.183,0.1894,0.1914,0.198,0.2038,0.209,0.2149,0.2216,0.2266,0.23,0.2315,0.2323,0.2359,0.2439,0.2351,0.2352,0.2367,0.2538,0.2374,0.2372,0.2446,0.2449,0.2451,0.2521,0,0.1725,0.1775,0.1814,0.1872,0.1897,0.1961,0.2013,0.208,0.214,0.2213,0.2264,0.233,0.2327,0.2366,0.2408,0.2435,0.2476,0.2421,0.248,0.2482,0.2322,0.2382,0.2459,0.253,0.2533,0.2535,0.2536,0,0.1719,0.1756,0.1811,0.1892,0.1912,0.1961,0.2061,0.2116,0.2223,0.2275,0.2363,0.2403,0.2486,0.2467,0.2563,0.2533,0.2552,0.2561,0.2563,0.2403,0.2341,0.2455,0.2558,0.2557,0.2555,0.2553,0.2552,0,0.1671,0.1752,0.1799,0.1825,0.1919,0.1977,0.2041,0.2147,0.2204,0.2333,0.2392,0.2488,0.2555,0.2603,0.2641,0.2617,0.2727,0.2688,0.2558,0.2546,0.2651,0.2639,0.2761,0.2761,0.276,0.276,0.276,0,0.164,0.1682,0.1789,0.1812,0.1879,0.1966,0.2052,0.2135,0.2255,0.2318,0.2434,0.2491,0.2599,0.2667,0.2679,0.2659,0.2768,0.2579,0.2559,0.2668,0.2658,0.2659,0.2646,0.2763,0.2762,0.2762,0.2761,0,0.1572,0.1642,0.1699,0.1815,0.1857,0.1911,0.2048,0.2096,0.224,0.2332,0.2381,0.2529,0.2613,0.2692,0.277,0.2693,0.2692,0.266,0.2782,0.2766,0.2468,0.2458,0.2505,0.25,0.2496,0.2492,0.2489,0,0.1534,0.156,0.1685,0.1718,0.1778,0.1871,0.1922,0.2071,0.2126,0.2322,0.2348,0.2498,0.2573,0.2561,0.265,0.2667,0.2638,0.2611,0.2525,0.2469,0.2446,0.2442,0.2437,0.2482,0.2481,0.248,0.2479,0,0.146,0.1525,0.1571,0.1638,0.1702,0.1749,0.1849,0.1875,0.2039,0.2192,0.2259,0.2307,0.2403,0.2456,0.2502,0.2503,0.2606,0.2565,0.2573,0.2492,0.2442,0.2422,0.2423,0.2464,0.2466,0.2467,0.2468,0,0.1408,0.1416,0.1486,0.1533,0.1595,0.16,0.1671,0.1738,0.1814,0.2041,0.2056,0.2222,0.2375,0.2372,0.2406,0.2406,0.2356,0.2255,0.2278,0.2295,0.2193,0.2096,0.2006,0,0,0,0,0,0.1341,0.1334,0.1369,0.1392,0.1445,0.1482,0.1599,0.1675,0.1842,0.1836,0.1945,0.2022,0.2085,0.2172,0.2129,0.2301,0.2358,0.2237,0.225,0.2381,0.2398,0.2296,0,0,0,0,0,0,0.1287,0.1317,0.1324,0.1267,0.1253,0.1285,0.1351,0.1469,0.1486,0.1678,0.1733,0.1879,0.1983,0.2088,0.2082,0.2107,0.2067,0.2348,0.2342,0.2371,0.2387,0.2401,0.2302,0,0,0,0,0]},{"header":{"parameterUnit":"m.s-1","parameterCategory":2,"la1":30.2991,"la2":30.254,"lo1":-89.0895,"lo2":-89.0444,"dy":0.0017,"dx":0.0017,"nx":28,"ny":28,"refTime":"2024-08-28T09:00:00:Z","depth":"4","parameterNumber":3,"parameterNumberName":"V-component_of_CURRENTS"},"data":[0,0,0,0,0,0,0,0,0,0,0,0,0,0,0,0,0,0,0,0,0,0,0,0,0,0,0,0,0,0,0,0,0,0,0,0,0,0,0,0,0,0,0,0,0,0,0,0,0,0,0,0,0,0,0,0,0,0,0.0192,0.0192,0,0.0168,0.0168,0.0167,0.0151,0.0151,0.0151,0.0151,0.0113,0.0112,0.0111,0,0,0,0,0,0,0,0,0,0,0,0,0,0.0182,0.0183,0.0192,0.0192,0.0191,0.0168,0.0168,0.0167,0.0151,0.0151,0.0151,0.0151,0.0114,0.0113,0.0111,0,0,0,0,0,0,0,0,0,0,0,0,0,0.0175,0.0183,0.0192,0.0181,0.018,0.0168,0.0168,0.0167,0.0151,0.0151,0.0151,0.0151,0.0114,0.0113,0.0111,0.0105,0,0,0.0107,0.0106,0,0,0,0,0,0,0,0,0.0175,0.0175,0.0183,0.0182,0.018,0.0163,0.015,0.0146,0.0151,0.0162,0.0151,0.0151,0.0129,0.0126,0.0122,0.0103,0.0101,0.0107,0.0106,0.0105,0.0105,0,0,0,0,0,0,0,0.0176,0.0176,0.0182,0.0183,0.0181,0.0163,0.0162,0.0149,0.0146,0.0161,0.016,0.0158,0.0128,0.0123,0.0121,0.0101,0.0107,0.0106,0.0105,0.0104,0.0081,0.0081,0,0,0,0,0,0,0.0182,0.0177,0.0183,0.0181,0.0178,0.0163,0.0162,0.0168,0.0146,0.0143,0.0158,0.0157,0.0126,0.0122,0.0119,0.0127,0.0105,0.0104,0.0103,0.0081,0.0081,0.0081,0,0,0,0,0,0,0.0182,0.0183,0.0184,0.0178,0.0177,0.0164,0.017,0.0168,0.0169,0.0144,0.014,0.0162,0.0125,0.0121,0.0117,0.0125,0.0103,0.0102,0.008,0.0081,0.0081,0.0132,0,0,0,0,0,0,0.0182,0.0184,0.0191,0.0179,0.0178,0.0186,0.017,0.0167,0.0167,0.0166,0.0146,0.0142,0.0125,0.0119,0.0115,0.0122,0.0101,0.008,0.008,0.0081,0.013,0.0134,0.0137,0,0,0,0,0,0.0182,0.0195,0.0192,0.0192,0.0188,0.0186,0.0184,0.0173,0.0168,0.0173,0.016,0.0143,0.0119,0.0118,0.0114,0.0121,0.008,0.008,0.0081,0.0128,0.0133,0.0137,0,0,0,0,0,0,0.0193,0.0195,0.019,0.0203,0.0198,0.0184,0.0187,0.018,0.0173,0.0172,0.0149,0.0145,0.0142,0.0124,0.0124,0.0114,0.0095,0.0095,0.0133,0.0137,0.014,0.0153,0.01,0,0,0,0,0,0.02,0.0212,0.0205,0.0215,0.0215,0.0202,0.02,0.0194,0.0185,0.0182,0.0168,0.0151,0.0139,0.0134,0.0118,0.0116,0.0088,0.0116,0.012,0.0123,0.0129,0.0094,0.0095,0.0083,0.0083,0.0083,0,0,0.0205,0.0208,0.0213,0.0218,0.0212,0.0222,0.0201,0.0204,0.0211,0.0179,0.0185,0.0165,0.0141,0.0138,0.0135,0.0126,0.011,0.0124,0.0127,0.0131,0.0094,0.0095,0.0096,0.0083,0.0083,0.0083,0,0,0.0222,0.0226,0.0241,0.0243,0.0242,0.0238,0.0243,0.0234,0.0231,0.0232,0.0209,0.0197,0.018,0.0164,0.0154,0.0168,0.013,0.0161,0.0192,0.0157,0.0158,0.0158,0.0119,0.0116,0.0164,0.0164,0.0164,0,0.0227,0.0249,0.0243,0.0258,0.0266,0.0251,0.0269,0.0264,0.0255,0.0253,0.0241,0.0213,0.0192,0.0187,0.0192,0.0177,0.0149,0.0179,0.0163,0.0162,0.0162,0.0122,0.0117,0.0167,0.0167,0.0166,0.0166,0,0.0255,0.0273,0.0283,0.0302,0.0308,0.0322,0.0318,0.032,0.0313,0.0304,0.0295,0.0263,0.0248,0.0236,0.022,0.0209,0.0187,0.0171,0.0154,0.0166,0.0123,0.0117,0.017,0.0169,0.0169,0.0168,0,0,0.0266,0.0298,0.0303,0.0323,0.0336,0.0347,0.036,0.0368,0.038,0.0357,0.0365,0.0334,0.0313,0.03,0.0271,0.0242,0.021,0.0211,0.0208,0.0176,0.0129,0.0111,0.0103,0.0191,0.0191,0.019,0.0099,0,0.0291,0.0335,0.0343,0.0386,0.0408,0.0406,0.0425,0.0428,0.042,0.0422,0.0381,0.0378,0.0339,0.0335,0.0298,0.0234,0.0199,0.0236,0.0118,0.0114,0.0101,0.0097,0.0189,0.0094,0.0093,0.0092,0.0091,0,0.0317,0.0346,0.0395,0.0437,0.0448,0.0474,0.0503,0.0518,0.051,0.0502,0.0481,0.0448,0.0407,0.0372,0.0264,0.029,0.0217,0.0161,0.0155,0.0119,0.0087,0.0078,0.008,0.0081,0.0082,0.0083,0.0083,0,0.0334,0.0383,0.0429,0.0444,0.0487,0.0511,0.0536,0.0544,0.0569,0.0556,0.0565,0.0501,0.048,0.038,0.0262,0.0262,0.0135,0.0118,0.003,0.0027,0.0048,0.0049,0.0039,0.004,0.004,0.004,0.004,0,0.0358,0.0394,0.0446,0.0473,0.0535,0.055,0.061,0.0617,0.0639,0.0677,0.0615,0.0617,0.0481,0.0393,0.0276,0.0135,0.0141,0.0034,0.0004,0.0071,0.0075,0.0044,0.0045,0.0037,0.0037,0.0038,0.0039,0,0.0367,0.04,0.0457,0.0519,0.0548,0.0593,0.0674,0.0713,0.0724,0.0769,0.077,0.0701,0.0581,0.0432,0.0263,0.0162,0.0023,-0.0029,0.0051,0.0027,-0.0067,-0.0062,-0.0136,-0.0138,-0.0139,-0.014,-0.0141,0,0.0375,0.0407,0.0495,0.0544,0.058,0.0655,0.0713,0.0754,0.0803,0.0821,0.0845,0.0747,0.0679,0.0431,0.026,0.0023,-0.0009,-0.0087,-0.0076,-0.0062,-0.0085,-0.0077,-0.0071,-0.0143,-0.0143,-0.0143,-0.0143,0,0.039,0.0425,0.0477,0.0581,0.0656,0.0742,0.0828,0.087,0.0921,0.0926,0.0911,0.0784,0.0644,0.0439,0.025,0.0082,-0.004,-0.0099,-0.0098,-0.0089,-0.0071,-0.009,-0.0082,-0.0147,-0.0147,-0.0146,-0.0146,0,0.0405,0.0443,0.0524,0.0616,0.071,0.081,0.0853,0.0918,0.0965,0.0984,0.0972,0.0821,0.0732,0.0469,0.0298,0.0124,0.0079,0.0026,0.002,0.0022,0.009,0.0138,0.01,0,0,0,0,0,0.042,0.0473,0.0556,0.0662,0.0756,0.0823,0.0925,0.0962,0.1007,0.1009,0.0999,0.0869,0.0616,0.0503,0.0327,0.0258,0.0035,0.0044,-0.0032,-0.0169,-0.0165,-0.0113,0,0,0,0,0,0,0.0432,0.0508,0.0555,0.0688,0.0766,0.0882,0.0953,0.0988,0.0994,0.1004,0.0873,0.0815,0.0565,0.0715,0.032,0.0266,0.0192,-0.0074,-0.0078,-0.0172,-0.0168,-0.0164,-0.011,0,0,0,0,0]}]]